When you browse on this site, cookies collect data to enhance your experience and personalize the content and advertising you see.
Visit our Privacy Policy to learn more. By continuing to use the site, you agree to this use of cookies and data.
  • In France
  • List of Countries
  • For 7 days
  • Water Temperature
  • Satellite Maps
  • Weather Map
  • Weather Widgets
  • user-avatar
    Login

    Hourly Weather Klagenfurt

    Today, 18 April, Thursday

    Time Temperature Precipitation Wind Pressure Humidity
    00:00 +5°C° 0 mm 1 mps 694 mmHg 88%
    01:00 +6°C° 0 mm 1 mps 694 mmHg 88%
    02:00 +5°C° 0 mm 1 mps 694 mmHg 90%
    03:00 +5°C° 0 mm 1 mps 694 mmHg 91%
    04:00 +5°C° 0 mm 1 mps 694 mmHg 92%
    05:00 +6°C° 0 mm 1 mps 695 mmHg 87%
    06:00 +7°C° 0 mm 1 mps 695 mmHg 83%
    07:00 +8°C° 0 mm 1 mps 695 mmHg 77%
    08:00 +10°C° 0 mm 1 mps 696 mmHg 70%
    09:00 +12°C° 0 mm 1 mps 696 mmHg 62%
    10:00 +14°C° 0 mm 1 mps 696 mmHg 54%
    11:00 +14°C° 0.2 mm 2 mps 696 mmHg 54%
    12:00 +14°C° 0.2 mm 2 mps 696 mmHg 54%
    13:00 +15°C° 0 mm 2 mps 696 mmHg 53%
    14:00 +14°C° 0.2 mm 2 mps 696 mmHg 54%
    15:00 +14°C° 0.2 mm 2 mps 696 mmHg 56%
    16:00 +14°C° 0.2 mm 2 mps 696 mmHg 57%
    17:00 +12°C° 0.1 mm 1 mps 696 mmHg 65%
    18:00 +11°C° 0.1 mm 1 mps 696 mmHg 73%
    19:00 +9°C° 0.1 mm 1 mps 696 mmHg 81%
    20:00 +8°C° 0 mm 1 mps 697 mmHg 84%
    21:00 +8°C° 0 mm 1 mps 697 mmHg 86%
    22:00 +7°C° 0 mm 1 mps 697 mmHg 89%
    23:00 +6°C° 0 mm 1 mps 698 mmHg 90%

    Tomorrow, 19 April, Friday

    Time Temperature Precipitation Wind Pressure Humidity
    00:00 +6°C° 0 mm 1 mps 698 mmHg 91%
    01:00 +5°C° 0 mm 1 mps 698 mmHg 92%
    02:00 +5°C° 0 mm 1 mps 698 mmHg 93%
    03:00 +4°C° 0 mm 1 mps 698 mmHg 93%
    04:00 +4°C° 0 mm 1 mps 698 mmHg 94%
    05:00 +5°C° 0 mm 1 mps 698 mmHg 90%
    06:00 +6°C° 0 mm 1 mps 698 mmHg 85%
    07:00 +7°C° 0 mm 1 mps 698 mmHg 81%
    08:00 +10°C° 0 mm 1 mps 699 mmHg 71%
    09:00 +12°C° 0 mm 1 mps 699 mmHg 61%
    10:00 +15°C° 0 mm 1 mps 700 mmHg 51%
    11:00 +16°C° 0 mm 1 mps 700 mmHg 47%
    12:00 +18°C° 0 mm 1 mps 700 mmHg 44%
    13:00 +19°C° 0 mm 1 mps 700 mmHg 40%
    14:00 +19°C° 0 mm 1 mps 699 mmHg 42%
    15:00 +18°C° 0 mm 1 mps 699 mmHg 43%
    16:00 +18°C° 0 mm 1 mps 699 mmHg 44%
    17:00 +15°C° 0 mm 1 mps 698 mmHg 52%
    18:00 +11°C° 0 mm 0 mps 698 mmHg 61%
    19:00 +9°C° 0 mm 0 mps 697 mmHg 69%
    20:00 +8°C° 0 mm 0 mps 698 mmHg 72%
    21:00 +8°C° 0 mm 0 mps 698 mmHg 74%
    22:00 +7°C° 0 mm 0 mps 698 mmHg 77%
    23:00 +6°C° 0 mm 0 mps 698 mmHg 79%

    Day after tomorrow, 20 April, Saturday

    Time Temperature Precipitation Wind Pressure Humidity
    00:00 +7°C° 0 mm 1 mps 698 mmHg 80%
    01:00 +7°C° 0 mm 1 mps 698 mmHg 82%
    02:00 +6°C° 0 mm 1 mps 698 mmHg 83%
    03:00 +6°C° 0 mm 1 mps 697 mmHg 84%
    04:00 +6°C° 0 mm 1 mps 697 mmHg 85%
    05:00 +7°C° 0 mm 1 mps 697 mmHg 80%
    06:00 +8°C° 0 mm 1 mps 698 mmHg 76%
    07:00 +9°C° 0 mm 1 mps 698 mmHg 71%
    08:00 +12°C° 0 mm 1 mps 698 mmHg 63%
    09:00 +15°C° 0 mm 1 mps 698 mmHg 54%
    10:00 +18°C° 0 mm 1 mps 699 mmHg 46%
    11:00 +19°C° 0 mm 1 mps 699 mmHg 44%
    12:00 +19°C° 0 mm 1 mps 698 mmHg 42%
    13:00 +20°C° 0 mm 1 mps 698 mmHg 40%
    14:00 +19°C° 0 mm 1 mps 698 mmHg 42%
    15:00 +19°C° 0 mm 1 mps 697 mmHg 44%
    16:00 +18°C° 0 mm 1 mps 697 mmHg 46%
    17:00 +15°C° 0 mm 1 mps 696 mmHg 55%
    18:00 +13°C° 0 mm 1 mps 696 mmHg 64%
    19:00 +10°C° 0 mm 1 mps 695 mmHg 73%
    20:00 +9°C° 0 mm 1 mps 695 mmHg 77%
    21:00 +7°C° 0 mm 0 mps 695 mmHg 80%
    22:00 +6°C° 0 mm 0 mps 695 mmHg 84%
    23:00 +6°C° 0 mm 0 mps 695 mmHg 84%

    21 April, Sunday

    Time Temperature Precipitation Wind Pressure Humidity
    00:00 +6°C° 0 mm 0 mps 695 mmHg 85%
    01:00 +5°C° 0 mm 0 mps 695 mmHg 85%
    02:00 +5°C° 0 mm 0 mps 694 mmHg 85%
    03:00 +5°C° 0 mm 0 mps 694 mmHg 86%
    04:00 +4°C° 0 mm 0 mps 693 mmHg 86%
    05:00 +6°C° 0 mm 0 mps 693 mmHg 81%
    06:00 +7°C° 0 mm 0 mps 693 mmHg 76%
    07:00 +9°C° 0 mm 0 mps 694 mmHg 72%
    08:00 +11°C° 0 mm 0 mps 694 mmHg 63%
    09:00 +14°C° 0 mm 1 mps 694 mmHg 54%
    10:00 +16°C° 0 mm 1 mps 694 mmHg 45%
    11:00 +18°C° 0 mm 1 mps 694 mmHg 42%
    12:00 +19°C° 0 mm 1 mps 693 mmHg 39%
    13:00 +19°C° 0 mm 2 mps 693 mmHg 36%
    14:00 +18°C° 0 mm 2 mps 693 mmHg 37%
    15:00 +18°C° 0 mm 2 mps 692 mmHg 37%
    16:00 +18°C° 0 mm 2 mps 692 mmHg 38%
    17:00 +15°C° 0 mm 2 mps 691 mmHg 48%
    18:00 +13°C° 0 mm 2 mps 691 mmHg 58%
    19:00 +10°C° 0 mm 1 mps 690 mmHg 67%
    20:00 +9°C° 0 mm 1 mps 690 mmHg 71%
    21:00 +8°C° 0 mm 1 mps 691 mmHg 75%
    22:00 +7°C° 0 mm 1 mps 691 mmHg 79%
    23:00 +6°C° 0 mm 1 mps 690 mmHg 79%

    22 April, Monday

    Time Temperature Precipitation Wind Pressure Humidity
    00:00 +6°C° 0 mm 1 mps 690 mmHg 78%
    01:00 +5°C° 0 mm 1 mps 690 mmHg 78%
    02:00 +5°C° 0 mm 1 mps 689 mmHg 78%
    03:00 +5°C° 0 mm 1 mps 689 mmHg 78%
    04:00 +5°C° 0 mm 1 mps 689 mmHg 78%
    05:00 +6°C° 0 mm 1 mps 689 mmHg 75%
    06:00 +7°C° 0 mm 1 mps 689 mmHg 73%
    07:00 +8°C° 0 mm 1 mps 689 mmHg 70%
    08:00 +10°C° 0 mm 1 mps 689 mmHg 65%
    09:00 +12°C° 0 mm 2 mps 689 mmHg 61%
    10:00 +14°C° 0 mm 2 mps 689 mmHg 57%
    11:00 +14°C° 0 mm 2 mps 688 mmHg 55%
    12:00 +14°C° 0 mm 3 mps 688 mmHg 52%
    13:00 +16°C° 0 mm 3 mps 688 mmHg 49%
    14:00 +16°C° 0 mm 3 mps 687 mmHg 50%
    15:00 +16°C° 0 mm 3 mps 687 mmHg 52%
    16:00 +16°C° 0 mm 2 mps 686 mmHg 53%
    17:00 +14°C° 0 mm 2 mps 686 mmHg 60%
    18:00 +13°C° 0 mm 2 mps 686 mmHg 67%
    19:00 +11°C° 0 mm 1 mps 685 mmHg 74%
    20:00 +11°C° 0.1 mm 1 mps 685 mmHg 77%
    21:00 +10°C° 0.1 mm 1 mps 685 mmHg 80%
    22:00 +9°C° 0.1 mm 0 mps 685 mmHg 82%
    23:00 +9°C° 0.3 mm 0 mps 685 mmHg 84%

    23 April, Tuesday

    Time Temperature Precipitation Wind Pressure Humidity
    00:00 +8°C° 0.3 mm 0 mps 684 mmHg 86%
    01:00 +8°C° 0.3 mm 0 mps 684 mmHg 88%
    02:00 +8°C° 2.3 mm 0 mps 683 mmHg 91%
    03:00 +8°C° 2.3 mm 0 mps 683 mmHg 93%
    04:00 +7°C° 2.3 mm 0 mps 683 mmHg 95%
    05:00 +7°C° 1.5 mm 0 mps 683 mmHg 95%
    06:00 +8°C° 1.5 mm 1 mps 683 mmHg 96%
    07:00 +8°C° 1.5 mm 1 mps 683 mmHg 96%
    08:00 +9°C° 1.4 mm 1 mps 683 mmHg 95%
    09:00 +9°C° 1.4 mm 1 mps 683 mmHg 94%
    10:00 +9°C° 1.4 mm 1 mps 683 mmHg 93%
    11:00 +10°C° 2.5 mm 1 mps 683 mmHg 93%
    12:00 +10°C° 2.5 mm 1 mps 683 mmHg 92%
    13:00 +10°C° 2.5 mm 1 mps 682 mmHg 91%
    14:00 +10°C° 2.9 mm 1 mps 682 mmHg 92%
    15:00 +10°C° 2.9 mm 1 mps 682 mmHg 93%
    16:00 +9°C° 2.9 mm 0 mps 682 mmHg 94%
    17:00 +9°C° 0.6 mm 0 mps 682 mmHg 94%
    18:00 +9°C° 0.6 mm 0 mps 683 mmHg 95%
    19:00 +9°C° 0.6 mm 0 mps 683 mmHg 96%
    20:00 +9°C° 0.7 mm 0 mps 683 mmHg 96%
    21:00 +9°C° 0.7 mm 0 mps 684 mmHg 96%
    22:00 +9°C° 0.7 mm 0 mps 684 mmHg 96%
    23:00 +9°C° 0.3 mm 0 mps 685 mmHg 96%
    Show more